Location: Newark
(54.3386°S, 169.8415°W)
Time: 00:45:07
(UTC+00:00)

Transit 4A - Visible Passes

Search period start: 23 October 2019 00:00
Search period end: 02 November 2019 00:00
Orbit: 867 x 978 km, 66.8° (Epoch: 21 October)

Date Brightness Start Highest point End Pass type
(mag) Time Alt. Az. Time Alt. Az. Time Alt. Az.
23 Oct 9.9 07:15:09 10° WSW 07:20:12 27° S 07:25:24 10° SE visible
23 Oct 9.5 09:03:00 10° SW 09:08:24 30° SSE 09:13:55 10° E visible
23 Oct 8.2 10:49:39 10° SW 10:55:51 67° SE 10:59:14 29° ENE visible
23 Oct 8.5 12:36:20 10° SW 12:42:00 37° WNW 12:42:42 36° NW visible
24 Oct 9.9 07:24:56 10° WSW 07:29:58 26° S 07:35:06 10° SE visible
24 Oct 9.3 09:12:29 10° SW 09:18:05 34° SSE 09:23:48 10° E visible
24 Oct 7.9 10:59:00 10° SW 11:05:17 83° SE 11:07:52 39° NE visible
24 Oct 8.9 12:45:56 10° SW 12:51:07 28° WNW 12:51:20 28° WNW visible
25 Oct 9.8 07:34:40 10° SW 07:39:43 26° S 07:44:54 10° ESE visible
25 Oct 9.0 09:21:55 10° SW 09:27:43 40° SSE 09:33:05 12° E visible
25 Oct 7.9 11:08:23 10° SW 11:14:38 78° NW 11:16:34 47° NNE visible
25 Oct 9.3 12:55:45 10° WSW 13:00:03 20° WNW 13:00:03 20° WNW visible
26 Oct 9.7 07:44:20 10° SW 07:49:29 27° S 07:54:45 10° ESE visible
26 Oct 8.7 09:31:18 10° SW 09:37:18 47° SE 09:41:52 18° ENE visible
26 Oct 8.0 11:17:47 10° SW 11:23:55 60° WNW 11:25:21 48° N visible
26 Oct 9.7 13:05:56 10° WSW 13:08:50 14° W 13:08:50 14° W visible
27 Oct 9.6 07:53:54 10° SW 07:59:12 29° SSE 08:04:38 10° ESE visible
27 Oct 8.4 09:40:40 10° SW 09:46:49 58° SE 09:50:41 24° ENE visible
27 Oct 8.3 11:27:15 10° SW 11:33:09 45° WNW 11:34:10 42° NW visible
28 Oct 9.4 08:03:26 10° SW 08:08:55 32° SSE 08:14:31 10° E visible
28 Oct 8.1 09:50:02 10° SW 09:56:16 72° SE 09:59:33 30° ENE visible
28 Oct 8.7 11:36:47 10° SW 11:42:19 34° WNW 11:43:02 33° NW visible
29 Oct 9.2 08:12:53 10° SW 08:18:35 36° SSE 08:24:23 10° E visible
29 Oct 7.9 09:59:23 10° SW 10:05:41 90° NW 10:08:27 37° NE visible
29 Oct 9.1 11:46:27 10° WSW 11:51:25 25° WNW 11:51:57 25° WNW visible
30 Oct 8.9 08:22:18 10° SW 08:28:12 42° SSE 08:33:54 11° E visible
30 Oct 8.0 10:08:46 10° SW 10:15:01 71° NW 10:17:24 40° NNE visible
30 Oct 9.5 11:56:22 10° WSW 12:00:26 18° WNW 12:00:53 18° WNW visible
31 Oct 8.6 08:31:41 10° SW 08:37:46 51° SE 08:42:52 15° ENE visible
31 Oct 8.2 10:18:12 10° SW 10:24:17 54° WNW 10:26:22 38° N visible
31 Oct 9.9 12:06:50 10° WSW 12:09:22 13° W 12:09:52 13° WNW visible
01 Nov 8.3 08:41:03 10° SW 08:47:15 63° SE 08:51:52 19° ENE visible
01 Nov 8.6 10:27:41 10° SW 10:33:29 40° WNW 10:35:23 33° NNW visible
